Weather History for KCDJ - November, 2012

Change the Weather History Date:

Thursday, November 29, 2012

  Actual Average (KIRK) Record (KIRK)
Temperature  
Mean Temperature 44 °F 34 °F  
Max Temperature 57 °F 43 °F - ()
Min Temperature 30 °F 25 °F - ()
Degree Days  
Heating Degree Days 22 31  
Month to date heating degree days 704  
Since 1 July heating degree days 1193  
Cooling Degree Days 0 0  
Month to date cooling degree days 0  
Year to date cooling degree days 939  
Moisture  
Dew Point 32 °F    
Average Humidity 70    
Maximum Humidity 89    
Minimum Humidity 47    
Precipitation  
Precipitation 0.00 in 0.09 in - ()
Month to date precipitation 2.64  
Year to date precipitation 37.48  
Sea Level Pressure  
Sea Level Pressure 30.10 in    
Wind  
Wind Speed 3 mph (South)    
Max Wind Speed 13 mph    
Max Gust Speed 21 mph    
T = Trace of Precipitation, MM = Missing Value Source: NWS Daily Summary

Daily Weather History Graph

Daily Weather History Graph

Search for Another Location

Airport or City:

Trip Planner

Search our weather history database for the weather conditions in past years. The results will help you decide how hot, cold, wet, or windy it might be!

Date:

Astronomy

Nov. 29, 2012 Rise Set
Actual Time 7:14 AM CST 4:50 PM CST
Civil Twilight 6:45 AM CST 5:20 PM CST
Nautical Twilight 6:11 AM CST 5:53 PM CST
Astronomical Twilight 5:39 AM CST 6:26 PM CST
Moon 5:54 PM CST 8:02 AM CST
Length of Visible Light 10h 35m
Length of Day
9h 35m
Full, 99% of the Moon is Illuminated
Nov 29
Full
Dec 6
Last Quarter
Dec 13
New
Dec 19
First Quarter
Dec 28
Full

Hourly Weather History & Observations

Time (CST) Temp. Windchill Dew Point Humidity Pressure Visibility Wind Dir Wind Speed Gust Speed Precip Events Conditions
12:52 AM 33.1 °F - 26.1 °F 75% 30.22 in - Calm Calm - N/A   Unknown
1:52 AM 30.9 °F - 26.1 °F 82% 30.22 in - Calm Calm - N/A   Unknown
2:52 AM 32.0 °F 28.7 °F 26.1 °F 79% 30.21 in - SE 3.5 mph - N/A   Unknown
3:52 AM 33.1 °F 27.7 °F 26.1 °F 75% 30.20 in - SSE 5.8 mph - N/A   Unknown
4:52 AM 35.1 °F 29.3 °F 28.0 °F 76% 30.17 in - SSE 6.9 mph - N/A   Unknown
5:52 AM 36.0 °F 32.1 °F 28.0 °F 73% 30.17 in - SSE 4.6 mph - N/A   Unknown
6:52 AM 33.1 °F - 27.0 °F 78% 30.16 in - Calm Calm - N/A   Unknown
7:52 AM 32.0 °F - 27.0 °F 82% 30.15 in - Calm Calm - N/A   Unknown
8:52 AM 41.0 °F 39.0 °F 32.0 °F 70% 30.14 in - South 3.5 mph - N/A   Unknown
9:52 AM 46.9 °F - 33.1 °F 59% 30.14 in - SSW 12.7 mph 20.7 mph N/A   Unknown
10:52 AM 50.0 °F - 34.0 °F 54% 30.12 in - SSW 8.1 mph - N/A   Unknown
11:52 AM 53.1 °F - 35.1 °F 50% 30.09 in - SSW 10.4 mph - N/A   Unknown
12:52 PM 54.0 °F - 36.0 °F 51% 30.07 in - SW 9.2 mph - N/A   Unknown
1:52 PM 57.0 °F - 37.0 °F 47% 30.04 in - SSW 9.2 mph - N/A   Unknown
2:52 PM 55.9 °F - 37.0 °F 49% 30.02 in - South 6.9 mph - N/A   Unknown
3:52 PM 55.9 °F - 37.9 °F 51% 30.01 in - South 5.8 mph - N/A   Unknown
4:52 PM 53.1 °F - 37.9 °F 57% 30.01 in - Calm Calm - N/A   Unknown
5:52 PM 43.0 °F - 34.0 °F 71% 30.03 in - Calm Calm - N/A   Unknown
6:52 PM 41.0 °F - 34.0 °F 76% 30.04 in - Calm Calm - N/A   Unknown
7:52 PM 39.0 °F - 33.1 °F 79% 30.04 in - Calm Calm - N/A   Unknown
8:52 PM 37.0 °F - 33.1 °F 86% 30.04 in - Calm Calm - N/A   Unknown
9:52 PM 35.1 °F - 32.0 °F 89% 30.04 in - Calm Calm - N/A   Unknown
10:52 PM 35.1 °F 32.2 °F 30.9 °F 85% 30.03 in - South 3.5 mph - N/A   Unknown
11:52 PM 37.0 °F 32.4 °F 33.1 °F 86% 30.03 in - South 5.8 mph - N/A   Unknown